RPA3596 KEWR-KRDU

Flight info

Callsign RPA3596
Flight time N/A
Altitude 34000
Route ELVAE NECCK WHITE Q409 VILLS NALES Q141 HOUKY TAQLE2
Aircraft E75L/M-SDE3GILORVW/S

Departure

Time 2026-04-22 23:18
Airport Newark Liberty International Airport (KEWR)

Arrival

Time N/A
Airport Raleigh-Durham International Airport (KRDU)
Time Latitude Longitude Altitude Speed Heading
2026-04-22 23:00 40.69614 -74.17238 18 ft 0 kts 242°
2026-04-22 23:08 40.69616 -74.17232 18 ft 2 kts 242°
2026-04-22 23:08 40.69623 -74.17214 18 ft 2 kts 242°
2026-04-22 23:08 40.69633 -74.17191 19 ft 3 kts 242°
2026-04-22 23:08 40.69644 -74.17164 21 ft 3 kts 227°
2026-04-22 23:09 40.69665 -74.17151 19 ft 3 kts 180°
2026-04-22 23:09 40.69681 -74.17155 19 ft 0 kts 154°
2026-04-22 23:12 40.69676 -74.17152 19 ft 2 kts 154°
2026-04-22 23:13 40.69651 -74.17136 19 ft 6 kts 154°
2026-04-22 23:13 40.69617 -74.17119 22 ft 6 kts 160°
2026-04-22 23:13 40.69562 -74.17094 18 ft 11 kts 162°
2026-04-22 23:13 40.69528 -74.17024 18 ft 9 kts 86°
2026-04-22 23:14 40.69530 -74.16988 18 ft 1 kts 94°
2026-04-22 23:14 40.69537 -74.16961 18 ft 5 kts 53°
2026-04-22 23:14 40.69577 -74.16926 18 ft 10 kts 30°
2026-04-22 23:14 40.69657 -74.16878 18 ft 15 kts 24°
2026-04-22 23:15 40.69770 -74.16806 19 ft 20 kts 27°
2026-04-22 23:15 40.69904 -74.16763 18 ft 14 kts
2026-04-22 23:15 40.69977 -74.16737 18 ft 9 kts 48°
2026-04-22 23:15 40.69993 -74.16639 17 ft 14 kts 96°
2026-04-22 23:16 40.69986 -74.16546 18 ft 13 kts 95°
2026-04-22 23:16 40.69977 -74.16428 15 ft 1 kts 126°
2026-04-22 23:16 40.69963 -74.16412 16 ft 2 kts 164°
2026-04-22 23:16 40.69935 -74.16421 15 ft 7 kts 205°
2026-04-22 23:17 40.69866 -74.16465 16 ft 18 kts 206°
2026-04-22 23:17 40.69627 -74.16618 18 ft 71 kts 204°
2026-04-22 23:17 40.68977 -74.17029 18 ft 134 kts 205°
2026-04-22 23:17 40.68018 -74.17649 268 ft 165 kts 204°
2026-04-22 23:18 40.67010 -74.18272 785 ft 150 kts 203°
2026-04-22 23:18 40.66037 -74.18874 936 ft 162 kts 203°
2026-04-22 23:18 40.65001 -74.19476 1734 ft 166 kts 204°
2026-04-22 23:18 40.63909 -74.20053 2541 ft 171 kts 204°
2026-04-22 23:19 40.62771 -74.20606 3335 ft 177 kts 204°
2026-04-22 23:19 40.61553 -74.20989 4111 ft 186 kts 186°
2026-04-22 23:19 40.60252 -74.21061 4925 ft 188 kts 192°
2026-04-22 23:19 40.58915 -74.21517 5339 ft 210 kts 211°
2026-04-22 23:20 40.57717 -74.22683 6042 ft 220 kts 231°
2026-04-22 23:20 40.56639 -74.24303 6461 ft 255 kts 235°
2026-04-22 23:20 40.55224 -74.25902 7145 ft 278 kts 211°
2026-04-22 23:20 40.53304 -74.26521 8129 ft 294 kts 182°
2026-04-22 23:21 40.51278 -74.25923 9066 ft 304 kts 164°
2026-04-22 23:21 40.49281 -74.24920 9993 ft 310 kts 161°
2026-04-22 23:21 40.47207 -74.23849 10351 ft 336 kts 161°
2026-04-22 23:21 40.44946 -74.22720 10502 ft 364 kts 161°
2026-04-22 23:22 40.42536 -74.21541 11391 ft 367 kts 162°
2026-04-22 23:22 40.40156 -74.20375 12301 ft 372 kts 162°
2026-04-22 23:22 40.37720 -74.19190 13280 ft 376 kts 162°
2026-04-22 23:22 40.35245 -74.17989 14242 ft 382 kts 162°
2026-04-22 23:23 40.32723 -74.16768 15141 ft 388 kts 162°
2026-04-22 23:23 40.30091 -74.16036 15993 ft 386 kts 184°
2026-04-22 23:23 40.27443 -74.16494 16869 ft 382 kts 199°
2026-04-22 23:23 40.24869 -74.17448 17687 ft 387 kts 201°
2026-04-22 23:24 40.22244 -74.18389 18498 ft 394 kts 200°
2026-04-22 23:24 40.19565 -74.19283 19295 ft 399 kts 199°
2026-04-22 23:24 40.16879 -74.20136 20046 ft 404 kts 199°
2026-04-22 23:24 40.14124 -74.20992 20761 ft 409 kts 199°
2026-04-22 23:25 40.11334 -74.21849 21424 ft 414 kts 198°
2026-04-22 23:25 40.08509 -74.22713 22084 ft 418 kts 198°
2026-04-22 23:25 40.05657 -74.23586 22716 ft 423 kts 198°
2026-04-22 23:25 40.02782 -74.24464 23392 ft 426 kts 198°
2026-04-22 23:26 39.99967 -74.25631 23897 ft 422 kts 211°
2026-04-22 23:26 39.97502 -74.27653 24456 ft 417 kts 224°
2026-04-22 23:26 39.95224 -74.30018 24974 ft 421 kts 225°
2026-04-22 23:26 39.92899 -74.32377 25508 ft 426 kts 224°
2026-04-22 23:27 39.90567 -74.34681 26180 ft 426 kts 223°
2026-04-22 23:27 39.88175 -74.37001 26747 ft 429 kts 223°
2026-04-22 23:27 39.85770 -74.39304 27391 ft 430 kts 223°
2026-04-22 23:27 39.83351 -74.41607 28060 ft 428 kts 223°
2026-04-22 23:28 39.81017 -74.43993 28625 ft 425 kts 228°
2026-04-22 23:28 39.78910 -74.46652 29261 ft 420 kts 233°
2026-04-22 23:28 39.76897 -74.49417 29896 ft 420 kts 234°
2026-04-22 23:28 39.74882 -74.52171 30452 ft 420 kts 233°
2026-04-22 23:29 39.72851 -74.54901 30974 ft 420 kts 233°
2026-04-22 23:29 39.70836 -74.57584 31488 ft 420 kts 233°
2026-04-22 23:29 39.68792 -74.60290 31989 ft 420 kts 233°
2026-04-22 23:29 39.66747 -74.62995 32503 ft 419 kts 233°
2026-04-22 23:30 39.64702 -74.65692 32968 ft 419 kts 234°
2026-04-22 23:30 39.62658 -74.68389 33442 ft 419 kts 234°
2026-04-22 23:30 39.60609 -74.71088 33915 ft 418 kts 234°
2026-04-22 23:30 39.58564 -74.73782 33963 ft 417 kts 234°
2026-04-22 23:31 39.55185 -74.78219 33988 ft 414 kts 234°
2026-04-22 23:31 39.51139 -74.83531 33980 ft 414 kts 234°
2026-04-22 23:32 39.47094 -74.88834 33988 ft 413 kts 234°
2026-04-22 23:32 39.43053 -74.94120 33982 ft 413 kts 234°
2026-04-22 23:33 39.39029 -74.99374 33988 ft 413 kts 234°
2026-04-22 23:33 39.34981 -75.04651 33963 ft 413 kts 234°
2026-04-22 23:34 39.30923 -75.09932 33966 ft 416 kts 233°
2026-04-22 23:34 39.26852 -75.15225 33969 ft 414 kts 233°
2026-04-22 23:35 39.22787 -75.20506 33973 ft 414 kts 233°
2026-04-22 23:35 39.18744 -75.25746 33964 ft 414 kts 233°
2026-04-22 23:36 39.14674 -75.31014 33959 ft 414 kts 233°
2026-04-22 23:36 39.10602 -75.36275 33954 ft 414 kts 233°
2026-04-22 23:37 39.06536 -75.41519 33955 ft 414 kts 233°
2026-04-22 23:37 39.02460 -75.46769 33957 ft 415 kts 233°
2026-04-22 23:38 38.98374 -75.52020 33960 ft 415 kts 233°
2026-04-22 23:38 38.94285 -75.57267 33963 ft 415 kts 233°
2026-04-22 23:39 38.90198 -75.62504 33960 ft 413 kts 234°
2026-04-22 23:39 38.88483 -75.65384 33973 ft 402 kts 245°
2026-04-22 23:39 38.87060 -75.68454 33978 ft 399 kts 248°
2026-04-22 23:40 38.84330 -75.74649 33973 ft 399 kts 248°
2026-04-22 23:40 38.81574 -75.80829 33974 ft 399 kts 248°
2026-04-22 23:41 38.78795 -75.86964 33975 ft 400 kts 248°
2026-04-22 23:41 38.75976 -75.93178 33974 ft 400 kts 248°
2026-04-22 23:42 38.72878 -75.99082 33931 ft 416 kts 230°
2026-04-22 23:42 38.68265 -76.03741 33967 ft 424 kts 224°
2026-04-22 23:43 38.63530 -76.08256 33963 ft 423 kts 224°
2026-04-22 23:43 38.58868 -76.12769 33965 ft 423 kts 224°
2026-04-22 23:44 38.54939 -76.16584 33961 ft 424 kts 224°